Tracking 33197 objects as of 18-Feb-2026
HD Live streaming from Space Station
objects crossing your sky now

STARLINK-3620

Track STARLINK-3620 now!
10-day predictions
STARLINK-3620 is classified as:


NORAD ID: 51775
Int'l Code: 2022-017H
Perigee: 546.0 km
Apogee: 547.8 km
Inclination: 53.2 °
Period: 95.4 minutes
Semi major axis: 6917 km
RCS: Unknown
Launch date: February 25, 2022
Source: United States (US)
Launch site: AIR FORCE WESTERN TEST RANGE (AFWTR)
Your satellite tracking list
Your tracking list is empty




NASA's NSSDC Master Catalog

Two Line Element Set (TLE):
1 51775U 22017H   26049.26402958 -.00000441  00000-0 -96476-5 0  9992
2 51775  53.2165  66.3229 0001326 101.5979 258.5162 15.08835337219678
Source of the keplerian elements: AFSPC